Rochester, NH

7:32 PM EST on February 07, 2016 (GMT -0500)
Skyhaven

Weather History for KDAW - March, 2013

Change the Weather History Date:

Friday, March 29, 2013

  Actual Average (KSFM) Record (KSFM)
Temperature  
Mean Temperature 46 °F -  
Max Temperature 54 °F 45 °F 71 °F (1998)
Min Temperature 37 °F 28 °F 12 °F (2015)
Degree Days  
Heating Degree Days 20    
Moisture  
Dew Point 30 °F    
Average Humidity 55    
Maximum Humidity 70    
Minimum Humidity 35    
Precipitation  
Precipitation 0.00 in - - ()
Sea Level Pressure  
Sea Level Pressure 29.99 in    
Wind  
Wind Speed 7 mph (NW)    
Max Wind Speed 16 mph    
Max Gust Speed 22 mph    
Visibility 10 miles    
Events      
Averages and records for this station are not official NWS values.
T = Trace of Precipitation, MM = Missing Value Source: NWS Daily Summary

Daily Weather History Graph

Daily Weather History Graph

Search for Another Location

Airport or City:

Trip Planner

Search our weather history database for the weather conditions in past years. The results will help you decide how hot, cold, wet, or windy it might be!

Date:

Astronomy

Mar. 29, 2013 Rise Set
Actual Time 6:30 AM EDT 7:06 PM EDT
Civil Twilight 6:01 AM EDT 7:35 PM EDT
Nautical Twilight 5:27 AM EDT 8:09 PM EDT
Astronomical Twilight 4:52 AM EDT 8:44 PM EDT
Moon 10:09 PM EDT (3/29) 7:32 AM EDT (3/29)
Length of Visible Light 13h 33m
Length of Day
12h 36m
Waning Gibbous, 93% of the Moon is Illuminated
Mar 29
Waning Gibbous
Apr 3
Last Quarter
Apr 10
New
Apr 18
First Quarter
Apr 25
Full

Hourly Weather History & Observations

Time (EDT) Temp. Windchill Dew Point Humidity Pressure Visibility Wind Dir Wind Speed Gust Speed Precip Events Conditions
12:51 AM 39.9 °F 35.8 °F 28.0 °F 63% 29.99 in 10.0 mi WNW 5.8 mph - N/A   Partly Cloudy
1:51 AM 37.0 °F 31.6 °F 28.0 °F 70% 29.99 in 10.0 mi NW 6.9 mph - N/A   Overcast
2:51 AM 39.9 °F - 28.9 °F 65% 29.98 in 10.0 mi Calm Calm - N/A   Overcast
3:51 AM 41.0 °F 39.0 °F 30.0 °F 65% 29.97 in 10.0 mi Variable 3.5 mph - N/A   Overcast
4:51 AM 39.0 °F - 28.9 °F 67% 29.97 in 10.0 mi Calm Calm - N/A   Mostly Cloudy
6:51 AM 39.0 °F 36.8 °F 30.0 °F 70% 29.99 in 10.0 mi WNW 3.5 mph - N/A   Overcast
7:51 AM 44.1 °F 39.0 °F 33.1 °F 65% 29.99 in 10.0 mi NW 9.2 mph - N/A   Overcast
8:51 AM 44.1 °F 38.6 °F 33.1 °F 65% 30.00 in 10.0 mi WNW 10.4 mph - 0.00 in   Overcast
9:51 AM 46.0 °F 41.0 °F 33.1 °F 61% 30.01 in 10.0 mi NW 10.4 mph - N/A   Overcast
10:51 AM 48.9 °F - 33.1 °F 54% 30.01 in 10.0 mi NW 9.2 mph - N/A   Overcast
11:51 AM 52.0 °F - 33.1 °F 49% 30.00 in 10.0 mi WNW 8.1 mph - N/A   Overcast
12:51 PM 54.0 °F - 30.0 °F 40% 29.99 in 10.0 mi NW 9.2 mph 17.3 mph N/A   Scattered Clouds
1:51 PM 54.0 °F - 28.9 °F 38% 29.97 in 10.0 mi NW 13.8 mph - N/A   Scattered Clouds
2:51 PM 53.1 °F - 26.1 °F 35% 29.96 in 10.0 mi NW 16.1 mph 21.9 mph N/A   Scattered Clouds
3:51 PM 53.1 °F - 27.0 °F 37% 29.95 in 10.0 mi NW 12.7 mph - N/A   Overcast
4:51 PM 50.0 °F - 30.0 °F 46% 29.96 in 10.0 mi NW 16.1 mph 21.9 mph N/A   Overcast
5:51 PM 50.0 °F - 28.0 °F 43% 29.97 in 10.0 mi WNW 6.9 mph - N/A   Overcast
6:51 PM 48.0 °F - 30.0 °F 50% 29.98 in 10.0 mi Variable 5.8 mph - N/A   Overcast
7:51 PM 46.0 °F 43.1 °F 30.0 °F 54% 29.99 in 10.0 mi WNW 5.8 mph - N/A   Overcast
9:51 PM 45.0 °F 40.1 °F 28.9 °F 53% 30.01 in 10.0 mi WNW 9.2 mph - N/A   Overcast
10:51 PM 43.0 °F 38.8 °F 28.0 °F 56% 30.02 in 10.0 mi NW 6.9 mph - N/A   Overcast
11:51 PM 42.1 °F 38.4 °F 28.0 °F 58% 30.02 in 10.0 mi WNW 5.8 mph - N/A   Overcast